Location: Bottenau
(48.5138°N, 8.0462°E)
Time: 09:37:15
(UTC+00:00)

Cosmos 1741 Rocket - Pass Details

Date: 18 April 2021
Orbit: 762 x 782 km, 74.0° (Epoch: 05 May)

Event Time Altitude Azimuth Distance (km) Brightness Sun altitude
Exits shadow 22:48:42 57° 306° (NW) 919 4.5 -29.7°
Drops below altitude 10° 22:53:44 10° 16° (NNE) 2,332 7.2 -29.9°
Sets 22:56:10 0° 21° (NNE) 3,260 8.1 -29.9°
